M0UPS-13 Weather Reports


Display with metric or nautical units.
time (UTC)temp
F
wind
direction
speed
MPH
gust
MPH
rain 1hr
in
rain 24hr
in
rain mn
in
humidity
%
barometer
mb
20260505180503 59 185 2.0 4.0 0.00 0.00 0.00 52 1011.6
20260505180002 59 234 1.0 3.0 0.00 0.00 0.00 52 1011.6
20260505175502 59 325 1.0 4.0 0.00 0.00 0.00 52 1011.5
20260505175002 59 226 1.0 4.0 0.00 0.00 0.00 51 1011.6
20260505174502 59 94 0.0 4.0 0.00 0.00 0.00 51 1011.6
20260505174002 60 232 1.0 2.0 0.00 0.00 0.00 51 1011.6
20260505173502 60 336 1.0 4.0 0.00 0.00 0.00 50 1011.7
20260505173002 60 53 3.0 4.0 0.00 0.00 0.00 50 1011.6
20260505172502 60 79 3.0 5.0 0.00 0.00 0.00 49 1011.7
20260505172002 60 154 2.0 4.0 0.00 0.00 0.00 49 1011.6
20260505171502 60 122 2.0 4.0 0.00 0.00 0.00 49 1011.6
20260505171002 60 324 1.0 4.0 0.00 0.00 0.00 49 1011.6
20260505170502 60 199 2.0 3.0 0.00 0.00 0.00 49 1011.7
20260505170002 61 290 1.0 3.0 0.00 0.00 0.00 49 1011.6
20260505165502 61 232 2.0 3.0 0.00 0.00 0.00 49 1011.7
20260505165002 61 259 1.0 4.0 0.00 0.00 0.00 50 1011.6
20260505164502 61 253 0.0 2.0 0.00 0.00 0.00 50 1011.7
20260505164002 61 31 2.0 4.0 0.00 0.00 0.00 48 1011.5
20260505163504 61 249 1.0 3.0 0.00 0.00 0.00 51 1011.6
20260505163002 61 44 1.0 3.0 0.00 0.00 0.00 49 1011.5
20260505162502 61 228 1.0 2.0 0.00 0.00 0.00 49 1011.5
20260505162002 61 97 1.0 4.0 0.00 0.00 0.00 49 1011.7
20260505161502 61 309 1.0 3.0 0.00 0.00 0.00 49 1011.7
20260505161002 61 118 3.0 4.0 0.00 0.00 0.00 47 1011.7
20260505160502 62 204 1.0 4.0 0.00 0.00 0.00 48 1011.5
20260505153002 61 66 0.0 3.0 0.00 0.00 0.00 49 1011.8
20260505152503 61 233 1.0 3.0 0.00 0.00 0.00 48 1011.7
20260505152002 61 350 2.0 3.0 0.00 0.00 0.00 48 1011.8
20260505151502 61 300 1.0 2.0 0.00 0.00 0.00 49 1011.7
20260505151002 61 248 0.0 5.0 0.00 0.00 0.00 49 1011.7
20260505150502 61 249 0.0 6.0 0.00 0.00 0.00 50 1011.8
20260505140502 62 216 1.0 2.0 0.00 0.00 0.00 50 1012.0
20260505125002 63 117 2.0 3.0 0.00 0.00 0.00 48 1012.2
20260505124502 64 280 2.0 4.0 0.00 0.00 0.00 49 1012.3
20260505124002 63 290 0.0 3.0 0.00 0.00 0.00 52 1012.4
20260505123502 64 247 1.0 3.0 0.00 0.00 0.00 50 1012.2
20260505123002 64 270 1.0 5.0 0.00 0.00 0.00 50 1012.3
20260505122503 63 264 0.0 2.0 0.00 0.00 0.00 50 1012.3
20260505122003 62 280 1.0 4.0 0.00 0.00 0.00 50 1012.2
20260505121502 62 257 0.0 2.0 0.00 0.00 0.00 52 1012.3
20260505121002 62 27 3.0 6.0 0.00 0.00 0.00 49 1012.3
20260505120502 64 86 5.0 9.0 0.00 0.00 0.00 47 1012.5
20260505120002 63 323 1.0 2.0 0.00 0.00 0.00 50 1012.3
20260505115502 63 105 3.0 4.0 0.00 0.00 0.00 50 1012.3
20260505115002 63 98 3.0 5.0 0.00 0.00 0.00 50 1012.3
20260505114502 63 195 2.0 4.0 0.00 0.00 0.00 51 1012.5
20260505114002 63 353 2.0 2.0 0.00 0.00 0.00 49 1012.2
20260505113502 63 110 1.0 6.0 0.00 0.00 0.00 49 1012.4
20260505113002 62 261 1.0 4.0 0.00 0.00 0.00 51 1012.6
20260505112502 63 182 1.0 4.0 0.00 0.00 0.00 48 1012.4
20260505112002 64 71 3.0 6.0 0.00 0.00 0.00 48 1012.5
20260505111502 64 286 0.0 5.0 0.00 0.00 0.00 52 1012.4
20260505111002 64 242 0.0 4.0 0.00 0.00 0.00 52 1012.6
20260505110502 64 276 3.0 4.0 0.00 0.00 0.00 50 1012.6
20260505102002 62 263 1.0 3.0 0.00 0.00 0.00 58 1013.0
20260505101503 62 304 1.0 4.0 0.00 0.00 0.00 57 1013.0
20260505101002 62 286 0.0 4.0 0.00 0.00 0.00 59 1013.1
20260505100502 64 288 2.0 5.0 0.00 0.00 0.00 53 1013.3
20260505100002 63 270 1.0 2.0 0.00 0.00 0.00 56 1013.0
20260505095502 61 240 1.0 4.0 0.00 0.00 0.00 59 1013.4
20260505095002 60 270 0.0 3.0 0.00 0.00 0.00 62 1013.1
20260505094502 61 80 2.0 4.0 0.00 0.00 0.00 60 1013.3
20260505094002 62 262 1.0 4.0 0.00 0.00 0.00 59 1013.3
20260505093502 61 273 2.0 3.0 0.00 0.00 0.00 63 1013.4
20260505093002 60 260 1.0 4.0 0.00 0.00 0.00 63 1013.2
20260505092502 59 54 2.0 4.0 0.00 0.00 0.00 63 1013.3
20260505092002 58 251 1.0 2.0 0.00 0.00 0.00 68 1013.2
20260505091502 58 232 1.0 3.0 0.00 0.00 0.00 68 1013.5
20260505091002 58 280 1.0 4.0 0.00 0.00 0.00 67 1013.4
20260505090502 58 63 2.0 6.0 0.00 0.00 0.00 65 1013.4
20260505090002 57 285 1.0 2.0 0.00 0.00 0.00 69 1013.5
20260505085502 57 241 0.0 2.0 0.00 0.00 0.00 69 1013.5
20260505085002 56 195 2.0 5.0 0.00 0.00 0.00 69 1013.6
20260505084502 56 37 3.0 5.0 0.00 0.00 0.00 70 1013.6
20260505084002 55 26 2.0 5.0 0.00 0.00 0.00 72 1013.6
20260505083502 55 340 1.0 5.0 0.00 0.00 0.00 71 1013.8
20260505083002 56 30 2.0 3.0 0.00 0.00 0.00 71 1013.5
20260505082502 56 253 1.0 3.0 0.00 0.00 0.00 71 1013.6
20260505082002 56 270 0.0 2.0 0.00 0.00 0.00 71 1013.5
20260505081502 56 260 0.0 2.0 0.00 0.00 0.00 72 1013.8
20260505081002 56 102 1.0 3.0 0.00 0.00 0.00 73 1013.7
20260505080502 56 284 0.0 3.0 0.00 0.00 0.00 73 1013.5
20260505080002 55 274 0.0 2.0 0.00 0.00 0.00 75 1013.5
20260505075502 55 356 2.0 4.0 0.00 0.00 0.00 74 1013.5
20260505075002 55 77 2.0 3.0 0.00 0.00 0.00 75 1013.5
20260505074502 55 270 1.0 5.0 0.00 0.00 0.00 74 1013.4
20260505074002 55 265 1.0 3.0 0.00 0.00 0.00 76 1013.3
20260505073502 55 285 0.0 2.0 0.00 0.00 0.00 76 1013.4
20260505073002 55 277 1.0 3.0 0.00 0.00 0.00 76 1013.3
20260505072503 56 264 1.0 2.0 0.00 0.00 0.00 76 1013.5
20260505072002 56 258 0.0 0.0 0.00 0.00 0.00 76 1013.4
20260505071502 55 279 1.0 3.0 0.00 0.00 0.00 76 1013.4
20260505071002 55 276 0.0 2.0 0.00 0.00 0.00 77 1013.5
20260505070502 55 285 0.0 5.0 0.00 0.00 0.00 77 1013.6
20260505070002 55 325 3.0 4.0 0.00 0.00 0.00 77 1013.6
20260505065502 55 234 0.0 2.0 0.00 0.00 0.00 77 1013.6
20260505065002 55 231 1.0 3.0 0.00 0.00 0.00 79 1013.8
20260505064502 54 285 0.0 0.0 0.00 0.00 0.00 79 1013.6
20260505064002 54 286 0.0 0.0 0.00 0.00 0.00 79 1013.7
20260505063503 54 230 0.0 2.0 0.00 0.00 0.00 80 1013.7
20260505063002 54 249 0.0 0.0 0.00 0.00 0.00 79 1013.6
20260505062502 54 330 1.0 4.0 0.00 0.00 0.00 79 1013.6
20260505062002 54 344 1.0 3.0 0.00 0.00 0.00 80 1013.8
20260505061502 54 295 0.0 3.0 0.00 0.00 0.00 81 1013.7
20260505061002 54 290 1.0 3.0 0.00 0.00 0.00 82 1013.7
20260505060503 54 40 2.0 4.0 0.00 0.00 0.00 83 1013.6
20260505060002 53 316 1.0 2.0 0.00 0.00 0.00 84 1013.5
20260505055502 53 81 0.0 3.0 0.00 0.00 0.00 84 1013.7
20260505055003 53 311 0.0 2.0 0.00 0.00 0.00 84 1013.6
20260505054502 53 308 0.0 2.0 0.00 0.00 0.00 84 1013.8
20260505054002 53 301 0.0 2.0 0.00 0.00 0.00 85 1013.5
20260505053502 53 305 2.0 3.0 0.00 0.00 0.00 85 1013.8
20260505053002 53 302 0.0 2.0 0.00 0.00 0.00 85 1013.7
20260505052502 53 329 0.0 2.0 0.00 0.00 0.00 85 1013.8
20260505052002 53 298 0.0 3.0 0.00 0.00 0.00 85 1013.8
20260505051502 53 304 1.0 2.0 0.00 0.00 0.00 85 1013.8
20260505051003 53 300 0.0 2.0 0.00 0.00 0.00 85 1013.6
20260505050502 53 310 1.0 3.0 0.00 0.00 0.00 85 1013.7
20260505041502 53 254 1.0 2.0 0.00 0.00 0.00 87 1013.8
20260505041002 53 293 0.0 0.0 0.00 0.00 0.00 87 1013.8
20260505040502 53 267 1.0 2.0 0.00 0.00 0.00 87 1013.7
20260505040003 53 299 0.0 0.0 0.00 0.00 0.00 87 1013.8
20260505035502 53 265 1.0 2.0 0.00 0.00 0.00 87 1013.7
20260505035002 53 211 0.0 3.0 0.00 0.00 0.00 87 1013.8
20260505034502 53 206 1.0 3.0 0.00 0.00 0.00 87 1013.8
20260505034002 53 322 1.0 4.0 0.00 0.00 0.00 87 1013.8
20260505033502 53 309 1.0 2.0 0.00 0.00 0.00 87 1013.8
20260505033002 53 210 1.0 3.0 0.00 0.00 0.00 86 1013.8
20260505032502 53 219 1.0 5.0 0.00 0.00 0.00 86 1013.7
20260505032002 53 327 1.0 4.0 0.00 0.00 0.00 86 1013.7
20260505031502 53 271 1.0 3.0 0.00 0.00 0.00 87 1013.8
20260505031002 53 303 0.0 2.0 0.00 0.00 0.00 87 1013.8
20260505030502 53 343 2.0 3.0 0.00 0.00 0.00 87 1013.9
20260505030002 53 321 1.0 2.0 0.00 0.00 0.00 87 1013.9
20260505025502 53 308 1.0 3.0 0.00 0.00 0.00 88 1013.8
20260505025002 53 199 1.0 3.0 0.00 0.00 0.00 88 1013.9
20260505024503 53 300 0.0 2.0 0.00 0.00 0.00 88 1013.9
20260505024002 53 228 0.0 4.0 0.00 0.00 0.00 87 1013.8
20260505023502 53 192 2.0 4.0 0.00 0.00 0.00 87 1014.0
20260505023003 53 340 2.0 4.0 0.00 0.00 0.00 86 1013.8
20260505022502 53 229 0.0 0.0 0.00 0.00 0.00 86 1013.9
20260505022002 53 259 0.0 0.0 0.00 0.00 0.00 86 1013.8
20260505021502 53 212 1.0 3.0 0.00 0.00 0.00 86 1014.0
20260505021002 53 325 2.0 3.0 0.00 0.00 0.00 86 1014.0
20260505020502 53 216 0.0 2.0 0.00 0.00 0.00 86 1014.2
20260505020002 53 212 2.0 3.0 0.00 0.00 0.00 86 1014.1
20260505015502 53 217 0.0 3.0 0.00 0.00 0.00 86 1013.9
20260505015002 53 302 1.0 2.0 0.00 0.00 0.00 86 1014.1
20260505014502 53 108 1.0 3.0 0.00 0.00 0.00 86 1014.1
20260505014002 53 346 3.0 4.0 0.00 0.00 0.00 86 1014.2
20260505013502 53 61 3.0 4.0 0.00 0.00 0.00 85 1014.3
20260505013002 54 131 3.0 4.0 0.00 0.00 0.00 85 1014.2
20260505012502 54 0 3.0 4.0 0.00 0.00 0.00 85 1014.1
20260505012002 54 47 3.0 5.0 0.00 0.00 0.00 85 1014.3
20260505011502 54 38 5.0 7.0 0.00 0.00 0.00 85 1014.4
20260505011002 54 298 1.0 2.0 0.00 0.00 0.00 85 1014.4
20260505010502 54 5 3.0 4.0 0.00 0.00 0.00 85 1014.4
20260505010003 54 259 2.0 3.0 0.00 0.00 0.00 85 1014.4
20260505005502 54 48 2.0 4.0 0.00 0.00 0.00 85 1014.5
20260505005002 54 100 2.0 6.0 0.00 0.00 0.00 85 1014.6
20260505004502 54 109 4.0 5.0 0.00 0.00 0.00 85 1014.6
20260505004002 54 75 4.0 5.0 0.00 0.00 0.00 85 1014.5
20260505003502 54 213 0.0 4.0 0.00 0.00 0.00 85 1014.6
20260505003002 54 258 2.0 3.0 0.00 0.00 0.00 85 1014.6
20260505002502 54 217 1.0 3.0 0.00 0.00 0.00 85 1014.5
20260505002003 54 171 1.0 3.0 0.00 0.00 0.00 85 1014.4
20260505001502 55 288 0.0 3.0 0.00 0.00 0.00 85 1014.6
20260505001002 55 292 1.0 4.0 0.00 0.00 0.00 85 1014.5
20260505000502 55 195 1.0 5.0 0.00 0.00 0.00 84 1014.9
20260505000003 55 209 1.0 3.0 0.00 0.00 0.00 84 1014.6
20260504235502 56 95 1.0 5.0 0.00 0.00 0.00 82 1014.5
20260504235002 56 267 0.0 3.0 0.00 0.00 0.00 79 1014.5
20260504234502 56 289 3.0 4.0 0.00 0.00 0.00 78 1014.7
20260504234002 56 318 1.0 4.0 0.00 0.00 0.00 78 1014.5
20260504233502 56 343 1.0 3.0 0.00 0.00 0.00 78 1014.6
20260504233002 56 22 2.0 3.0 0.00 0.00 0.00 77 1014.6
20260504232502 56 39 2.0 3.0 0.00 0.00 0.00 77 1014.7
20260504232003 56 334 3.0 4.0 0.00 0.00 0.00 77 1014.7
20260504231503 56 5 2.0 3.0 0.00 0.00 0.00 77 1014.6
20260504231002 56 2 1.0 4.0 0.00 0.00 0.00 77 1014.9
20260504230502 56 301 0.0 5.0 0.00 0.00 0.00 77 1014.9
20260504230002 56 293 1.0 2.0 0.00 0.00 0.00 77 1015.0
20260504225502 56 296 2.0 4.0 0.00 0.00 0.00 77 1015.0
20260504225002 56 329 1.0 3.0 0.00 0.00 0.00 78 1014.9
20260504224502 56 299 0.0 0.0 0.00 0.00 0.00 78 1014.6
20260504224002 56 303 0.0 3.0 0.00 0.00 0.00 78 1014.7
20260504223502 56 290 0.0 0.0 0.00 0.00 0.00 78 1015.0
20260504223002 56 254 0.0 0.0 0.00 0.00 0.00 78 1014.9
20260504222502 56 252 0.0 0.0 0.00 0.00 0.00 78 1015.0
20260504222002 56 246 0.0 0.0 0.00 0.00 0.00 78 1015.1
20260504221502 56 243 0.0 2.0 0.00 0.00 0.00 78 1014.9
20260504221002 56 245 1.0 3.0 0.00 0.00 0.00 78 1014.9
20260504220502 57 277 0.0 2.0 0.00 0.00 0.00 78 1015.0
20260504220002 57 295 1.0 3.0 0.00 0.00 0.00 78 1015.0
20260504215502 57 290 0.0 4.0 0.00 0.00 0.00 78 1015.0
20260504215002 57 256 1.0 2.0 0.00 0.00 0.00 79 1014.7
20260504214502 57 304 1.0 4.0 0.00 0.00 0.00 80 1015.1
20260504214002 57 56 0.0 0.0 0.00 0.00 0.00 81 1015.1
20260504213502 57 80 0.0 4.0 0.00 0.00 0.00 81 1015.0
20260504213002 57 204 1.0 3.0 0.00 0.00 0.00 81 1014.9
20260504212502 57 235 1.0 2.0 0.00 0.00 0.00 81 1014.7
20260504212002 57 308 1.0 2.0 0.00 0.00 0.00 81 1014.7
20260504211502 57 313 1.0 3.0 0.00 0.00 0.00 81 1015.0
20260504211002 57 345 2.0 3.0 0.00 0.00 0.00 80 1014.9
20260504210502 58 213 0.0 3.0 0.00 0.00 0.00 79 1015.1
20260504210003 58 249 1.0 2.0 0.00 0.00 0.00 79 1015.1
20260504205502 58 237 1.0 3.0 0.00 0.00 0.00 79 1015.2
20260504205005 58 281 1.0 2.0 0.00 0.00 0.00 78 1015.0
20260504204502 58 200 1.0 3.0 0.00 0.00 0.00 76 1015.0
20260504204002 58 259 0.0 2.0 0.00 0.00 0.00 76 1015.0
20260504203502 58 65 3.0 3.0 0.00 0.00 0.00 76 1014.9
20260504203002 58 298 0.0 2.0 0.00 0.00 0.00 76 1015.1
20260504202502 58 330 2.0 3.0 0.00 0.00 0.00 76 1014.9
20260504202002 58 231 0.0 0.0 0.00 0.00 0.00 76 1014.9
20260504201504 58 216 1.0 4.0 0.00 0.00 0.00 76 1015.0
20260504201002 58 318 0.0 3.0 0.00 0.00 0.00 75 1014.9
20260504200502 58 50 3.0 4.0 0.00 0.00 0.00 75 1014.9
20260504200003 58 304 1.0 2.0 0.00 0.00 0.00 75 1014.9
20260504195503 58 225 0.0 2.0 0.00 0.00 0.00 76 1014.7
20260504195002 58 201 1.0 2.0 0.00 0.00 0.00 76 1014.7
20260504194502 58 219 0.0 0.0 0.00 0.00 0.00 76 1014.6
20260504194002 58 284 0.0 0.0 0.00 0.00 0.00 75 1014.6
20260504193502 58 254 1.0 2.0 0.00 0.00 0.00 75 1014.7
20260504193003 58 199 2.0 4.0 0.00 0.00 0.00 75 1014.5
20260504192502 58 301 1.0 3.0 0.00 0.00 0.00 75 1014.6
20260504192002 58 225 0.0 3.0 0.00 0.00 0.00 75 1014.7
20260504191503 58 301 1.0 2.0 0.00 0.00 0.00 75 1014.7
20260504191002 59 224 1.0 5.0 0.00 0.00 0.00 75 1014.3
20260504190502 59 31 1.0 3.0 0.00 0.00 0.00 75 1014.5
20260504190002 59 69 2.0 4.0 0.00 0.00 0.00 75 1014.5
20260504185502 59 25 2.0 4.0 0.00 0.00 0.00 75 1014.5
20260504185004 58 216 1.0 3.0 0.00 0.00 0.00 75 1014.3
20260504184502 58 4 2.0 3.0 0.00 0.00 0.00 75 1014.2
20260504184002 59 304 1.0 2.0 0.00 0.00 0.00 75 1014.1
20260504183502 59 0 2.0 3.0 0.00 0.00 0.00 74 1014.1
20260504183002 59 338 2.0 6.0 0.00 0.00 0.00 74 1014.2
20260504182502 59 49 2.0 4.0 0.00 0.00 0.00 73 1014.3
20260504182002 59 295 1.0 3.0 0.00 0.00 0.00 73 1014.3
20260504181504 59 317 1.0 3.0 0.00 0.00 0.00 73 1014.2
20260504181003 59 294 0.0 2.0 0.00 0.00 0.00 73 1014.2